Location: Paris
(48.6709°N, 2.3750°E)
Time: 17:23:50
(UTC+02:00)

STARS - Pass Details

Date: 28 June 2022
Orbit: 620 x 637 km, 98.2° (Epoch: 06 August)

Event Time Altitude Azimuth Distance (km) Brightness Sun altitude
Rises 23:35:40 0° 26° (NNE) 2,937 ? -11.7°
Reaches altitude 10° 23:38:22 10° 43° (NE) 2,019 ? -12.0°
Maximum altitude 23:41:42 21° 92° (E) 1,427 ? -12.3°
Enters shadow 23:43:35 16° 126° (SE) 1,638 ? -12.4°
